| time (UTC) | temp F | wind direction | speed knots | gust knots | rain 1hr in | rain 24hr in | rain mn in | humidity % | barometer mb |
| 20260503194845 | 54 | 230 | 7.0 | 0.0 | 0.00 | 0.00 | 0.00 | 51 | 1017.0 |
| 20260503193437 | 54 | 230 | 7.0 | 0.0 | 0.00 | 0.00 | 0.00 | 51 | 1017.0 |
| 20260503191820 | 54 | 220 | 6.1 | 0.0 | 0.00 | 0.00 | 0.00 | 51 | 1018.0 |
| 20260503190320 | 54 | 220 | 6.1 | 0.0 | 0.00 | 0.00 | 0.00 | 51 | 1018.0 |
| 20260503184936 | 55 | 210 | 6.1 | 0.0 | 0.00 | 0.00 | 0.00 | 47 | 1018.0 |
| 20260503183319 | 55 | 210 | 6.1 | 0.0 | 0.00 | 0.00 | 0.00 | 47 | 1018.0 |
| 20260503181820 | 55 | 210 | 5.2 | 0.0 | 0.00 | 0.00 | 0.00 | 47 | 1018.0 |
| 20260503180319 | 55 | 210 | 5.2 | 0.0 | 0.00 | 0.00 | 0.00 | 47 | 1018.0 |
| 20260503174840 | 55 | 190 | 4.3 | 0.0 | 0.00 | 0.00 | 0.00 | 47 | 1018.0 |
| 20260503173345 | 55 | 190 | 4.3 | 0.0 | 0.00 | 0.00 | 0.00 | 47 | 1018.0 |
| 20260503171820 | 57 | 190 | 5.2 | 0.0 | 0.00 | 0.00 | 0.00 | 48 | 1018.0 |
| 20260503170320 | 57 | 190 | 5.2 | 0.0 | 0.00 | 0.00 | 0.00 | 48 | 1018.0 |
| 20260503150320 | 63 | 1.7 | 0.0 | 0.00 | 0.00 | 0.00 | 34 | 1019.0 | |
| 20260503130320 | 61 | 130 | 4.3 | 0.0 | 0.00 | 0.00 | 0.00 | 36 | 1020.0 |
| 20260503110341 | 59 | 1.7 | 0.0 | 0.00 | 0.00 | 0.00 | 34 | 1021.0 | |
| 20260503090341 | 55 | 4.3 | 0.0 | 0.00 | 0.00 | 0.00 | 38 | 1022.0 | |
| 20260503080331 | 55 | 170 | 4.3 | 0.0 | 0.00 | 0.00 | 0.00 | 38 | 1022.0 |
| 20260503071819 | 50 | 230 | 5.2 | 0.0 | 0.00 | 0.00 | 0.00 | 54 | 1022.0 |
| 20260503070321 | 50 | 230 | 5.2 | 0.0 | 0.00 | 0.00 | 0.00 | 54 | 1022.0 |
| 20260503060320 | 46 | 230 | 6.1 | 0.0 | 0.00 | 0.00 | 0.00 | 66 | 1022.0 |
| 20260503054820 | 45 | 230 | 6.1 | 0.0 | 0.00 | 0.00 | 0.00 | 71 | 1022.0 |
| 20260503053320 | 45 | 230 | 6.1 | 0.0 | 0.00 | 0.00 | 0.00 | 71 | 1022.0 |
| 20260503051820 | 43 | 230 | 7.0 | 0.0 | 0.00 | 0.00 | 0.00 | 76 | 1022.0 |
| 20260503050320 | 43 | 230 | 7.0 | 0.0 | 0.00 | 0.00 | 0.00 | 76 | 1022.0 |
| 20260503044820 | 41 | 250 | 2.6 | 0.0 | 0.00 | 0.00 | 0.00 | 76 | 1022.0 |
| 20260503043321 | 41 | 250 | 2.6 | 0.0 | 0.00 | 0.00 | 0.00 | 76 | 1022.0 |
| 20260503041820 | 41 | 0.9 | 0.0 | 0.00 | 0.00 | 0.00 | 70 | 1022.0 | |
| 20260503040343 | 41 | 0.9 | 0.0 | 0.00 | 0.00 | 0.00 | 70 | 1022.0 | |
| 20260503034822 | 39 | 250 | 5.2 | 0.0 | 0.00 | 0.00 | 0.00 | 70 | 1022.0 |
| 20260503033320 | 39 | 250 | 5.2 | 0.0 | 0.00 | 0.00 | 0.00 | 70 | 1022.0 |
| 20260503031820 | 37 | 240 | 5.2 | 0.0 | 0.00 | 0.00 | 0.00 | 75 | 1021.0 |
| 20260503030320 | 37 | 240 | 5.2 | 0.0 | 0.00 | 0.00 | 0.00 | 75 | 1021.0 |
| 20260503024835 | 41 | 240 | 6.1 | 0.0 | 0.00 | 0.00 | 0.00 | 66 | 1021.0 |
| 20260503023320 | 41 | 240 | 6.1 | 0.0 | 0.00 | 0.00 | 0.00 | 66 | 1021.0 |
| 20260503021820 | 41 | 250 | 6.1 | 0.0 | 0.00 | 0.00 | 0.00 | 66 | 1021.0 |
| 20260503020320 | 41 | 250 | 6.1 | 0.0 | 0.00 | 0.00 | 0.00 | 66 | 1021.0 |
| 20260503014820 | 41 | 250 | 6.1 | 0.0 | 0.00 | 0.00 | 0.00 | 66 | 1021.0 |
| 20260503013320 | 41 | 250 | 6.1 | 0.0 | 0.00 | 0.00 | 0.00 | 66 | 1021.0 |
| 20260503011820 | 43 | 250 | 6.1 | 0.0 | 0.00 | 0.00 | 0.00 | 61 | 1021.0 |
| 20260503010320 | 43 | 250 | 6.1 | 0.0 | 0.00 | 0.00 | 0.00 | 61 | 1021.0 |
| 20260503004820 | 41 | 240 | 6.1 | 0.0 | 0.00 | 0.00 | 0.00 | 66 | 1022.0 |
| 20260503003320 | 41 | 240 | 6.1 | 0.0 | 0.00 | 0.00 | 0.00 | 66 | 1022.0 |
| 20260503001820 | 39 | 240 | 6.1 | 0.0 | 0.00 | 0.00 | 0.00 | 70 | 1022.0 |
| 20260503000320 | 39 | 240 | 6.1 | 0.0 | 0.00 | 0.00 | 0.00 | 70 | 1022.0 |
| 20260502234820 | 39 | 240 | 5.2 | 0.0 | 0.00 | 0.00 | 0.00 | 70 | 1022.0 |
| 20260502233320 | 39 | 240 | 5.2 | 0.0 | 0.00 | 0.00 | 0.00 | 70 | 1022.0 |
| 20260502231820 | 39 | 230 | 5.2 | 0.0 | 0.00 | 0.00 | 0.00 | 75 | 1022.0 |
| 20260502230320 | 39 | 230 | 5.2 | 0.0 | 0.00 | 0.00 | 0.00 | 75 | 1022.0 |
| 20260502224820 | 43 | 220 | 5.2 | 0.0 | 0.00 | 0.00 | 0.00 | 61 | 1022.0 |
| 20260502223320 | 43 | 220 | 5.2 | 0.0 | 0.00 | 0.00 | 0.00 | 61 | 1022.0 |
| 20260502221820 | 39 | 240 | 5.2 | 0.0 | 0.00 | 0.00 | 0.00 | 75 | 1022.0 |
| 20260502220320 | 39 | 240 | 5.2 | 0.0 | 0.00 | 0.00 | 0.00 | 75 | 1022.0 |
| 20260502214820 | 41 | 230 | 5.2 | 0.0 | 0.00 | 0.00 | 0.00 | 66 | 1023.0 |
| 20260502213320 | 41 | 230 | 5.2 | 0.0 | 0.00 | 0.00 | 0.00 | 66 | 1023.0 |
| 20260502211820 | 41 | 220 | 4.3 | 0.0 | 0.00 | 0.00 | 0.00 | 66 | 1023.0 |
| 20260502210320 | 41 | 220 | 4.3 | 0.0 | 0.00 | 0.00 | 0.00 | 66 | 1023.0 |
| 20260502204820 | 41 | 200 | 2.6 | 0.0 | 0.00 | 0.00 | 0.00 | 66 | 1023.0 |
| 20260502203320 | 41 | 200 | 2.6 | 0.0 | 0.00 | 0.00 | 0.00 | 66 | 1023.0 |
| 20260502201820 | 45 | 160 | 2.6 | 0.0 | 0.00 | 0.00 | 0.00 | 57 | 1023.0 |
| 20260502200320 | 45 | 160 | 2.6 | 0.0 | 0.00 | 0.00 | 0.00 | 57 | 1023.0 |